CW9803 Weather Reports


time (UTC)temp
F
wind
direction
speed
knots
gust
knots
rain 1hr
in
rain 24hr
in
rain mn
in
humidity
%
barometer
mb
20260904171514 51 122 0.0 0.0 0.00 0.00 0.00 79 1012.7
20260904171010 51 122 0.0 0.0 0.00 0.00 0.00 79 1012.7
20260904170505 51 104 0.0 0.0 0.00 0.00 0.00 81 1012.7
20260904170001 48 81 0.0 0.9 0.00 0.00 0.00 84 1012.4
20260904165459 48 110 0.0 0.0 0.00 0.00 0.00 85 1012.5
20260904164959 49 124 0.0 0.0 0.00 0.00 0.00 84 1012.4
20260904164453 49 104 0.0 0.0 0.00 0.00 0.00 84 1012.3
20260904163438 48 98 0.0 0.0 0.00 0.00 0.00 86 1012.2
20260904162938 48 98 0.0 0.0 0.00 0.00 0.00 86 1012.2
20260904162433 48 60 0.9 1.7 0.00 0.00 0.00 86 1012.3
20260904161928 49 138 0.0 0.9 0.00 0.00 0.00 88 1012.4
20260904161424 47 104 0.9 0.9 0.00 0.00 0.00 91 1012.1
20260904160920 46 242 1.7 1.7 0.00 0.00 0.00 93 1012.0
20260904160414 46 134 0.9 1.7 0.00 0.00 0.00 96 1012.4
20260904155909 46 144 0.9 0.9 0.00 0.00 0.00 97 1012.2
20260904155404 45 200 0.9 1.7 0.00 0.00 0.00 98 1012.0
20260904154903 45 80 0.0 0.9 0.00 0.00 0.00 99 1012.0
20260904154357 45 177 0.9 1.7 0.00 0.00 0.00 99 1012.2
20260904153853 45 87 1.7 1.7 0.00 0.00 0.00 99 1012.1
20260904153348 45 17 0.9 2.6 0.00 0.00 0.00 99 1012.0
20260904152845 44 64 0.9 0.9 0.00 0.00 0.00 99 1012.1
20260904152344 44 125 1.7 1.7 0.00 0.00 0.00 99 1012.1
20260904151838 44 201 1.7 1.7 0.00 0.00 0.00 99 1012.1
20260904151338 44 58 2.6 2.6 0.00 0.00 0.00 99 1012.0
20260904150834 44 305 1.7 1.7 0.00 0.00 0.00 99 1011.9
20260904150329 43 131 0.0 0.0 0.00 0.00 0.00 99 1011.9
20260904145826 43 102 0.9 1.7 0.00 0.00 0.00 99 1011.9
20260904145323 43 95 0.9 0.9 0.00 0.00 0.00 99 1012.1
20260904144819 43 44 1.7 1.7 0.00 0.00 0.00 99 1011.9
20260904144314 43 111 0.9 0.9 0.00 0.00 0.00 99 1011.9
20260904143809 43 134 0.0 0.9 0.00 0.00 0.00 99 1011.9
20260904143306 43 98 0.0 0.0 0.00 0.00 0.00 99 1011.8
20260904142802 42 128 0.0 0.9 0.00 0.00 0.00 99 1012.1
20260904142257 43 94 0.9 0.9 0.00 0.00 0.00 99 1011.9
20260904141752 43 71 0.9 0.9 0.00 0.00 0.00 99 1011.8
20260904141248 43 139 0.0 0.0 0.00 0.00 0.00 99 1011.4
20260904140743 43 114 0.0 0.0 0.00 0.00 0.00 99 1011.4
20260904140238 43 144 0.0 0.0 0.00 0.00 0.00 99 1011.6
20260904135737 42 91 0.0 0.0 0.00 0.00 0.00 99 1011.4
20260904135232 43 120 0.0 0.0 0.00 0.00 0.00 99 1011.0
20260904134729 42 117 0.0 0.0 0.00 0.00 0.00 99 1011.2
20260904134228 43 107 0.0 0.0 0.00 0.00 0.00 99 1011.1
20260904133722 42 109 0.9 0.9 0.00 0.00 0.00 99 1010.9
20260904133220 43 65 1.7 1.7 0.00 0.00 0.00 99 1011.0
20260904132718 43 121 0.0 0.0 0.00 0.00 0.00 99 1011.0
20260904132214 42 118 0.0 0.0 0.00 0.00 0.00 99 1010.8
20260904131713 43 121 0.0 0.0 0.00 0.00 0.00 99 1010.9
20260904131209 42 101 0.9 0.9 0.00 0.00 0.00 99 1010.7
20260904130703 42 119 0.0 0.0 0.00 0.00 0.00 99 1010.6
20260904130202 42 122 0.0 0.0 0.00 0.00 0.00 99 1010.8
20260904125659 42 120 0.0 0.0 0.00 0.00 0.00 99 1010.7
20260904125154 42 118 0.0 0.0 0.00 0.00 0.00 99 1010.5
20260904124649 42 117 0.9 0.9 0.00 0.00 0.00 99 1010.5
20260904124145 42 108 0.0 0.0 0.00 0.00 0.00 99 1010.6
20260904123644 42 94 0.0 0.9 0.00 0.00 0.00 99 1010.3
20260904123140 43 70 0.0 0.9 0.00 0.00 0.00 99 1010.3
20260904122635 43 117 0.0 0.0 0.00 0.00 0.00 99 1010.6
20260904122130 43 124 0.0 0.0 0.00 0.00 0.00 99 1010.4
20260904121625 43 106 0.0 0.9 0.00 0.00 0.00 99 1010.3
20260904121121 43 77 0.0 0.0 0.00 0.00 0.00 99 1010.0
20260904120617 43 130 0.0 0.0 0.00 0.00 0.00 99 1010.3
20260904120113 43 154 0.0 0.0 0.00 0.00 0.00 99 1010.3
20260904115608 43 117 0.0 0.0 0.00 0.00 0.00 99 1010.0
20260904115103 43 110 0.0 0.9 0.00 0.00 0.00 99 1010.0
20260904114602 43 111 0.0 0.0 0.00 0.00 0.00 99 1010.3
20260904114057 43 119 0.0 0.0 0.00 0.00 0.00 99 1010.1
20260904113556 43 119 0.0 0.0 0.00 0.00 0.00 99 1009.9
20260904113051 43 119 0.0 0.0 0.00 0.00 0.00 99 1009.8
20260904112546 43 119 0.0 0.0 0.00 0.00 0.00 99 1009.8
20260904112042 43 117 0.0 0.0 0.00 0.00 0.00 99 1009.8
20260904111537 42 125 0.0 0.0 0.00 0.00 0.00 99 1009.7
20260904111032 43 143 0.0 0.0 0.00 0.00 0.00 99 1009.8
20260904110526 43 143 0.0 0.0 0.00 0.00 0.00 99 1009.8
20260904110022 43 139 0.0 0.0 0.00 0.00 0.00 99 1009.8
20260904105516 42 115 0.0 0.0 0.00 0.00 0.00 99 1010.0
20260904105012 42 120 0.0 0.0 0.00 0.00 0.00 99 1009.8
20260904104507 42 120 0.0 0.0 0.00 0.00 0.00 99 1009.8
20260904104003 42 156 0.0 0.0 0.00 0.00 0.00 99 1010.1
20260904103458 42 157 0.0 0.0 0.00 0.00 0.00 99 1009.9
20260904102954 42 157 0.0 0.0 0.00 0.00 0.00 99 1009.8
20260904102449 42 157 0.0 0.0 0.00 0.00 0.00 99 1009.7
20260904101944 42 151 0.0 0.0 0.00 0.00 0.00 99 1009.7
20260904101441 42 151 0.9 0.9 0.00 0.00 0.00 99 1009.6
20260904100931 42 129 0.0 0.0 0.00 0.00 0.00 99 1009.4
20260904100426 42 119 0.0 0.0 0.00 0.00 0.00 99 1009.7
20260904095921 42 119 0.0 0.0 0.00 0.00 0.00 99 1009.5
20260904095416 42 117 0.0 0.0 0.00 0.00 0.00 99 1009.5
20260904094911 42 109 0.0 0.0 0.00 0.00 0.00 99 1009.3
20260904094406 42 114 0.0 0.0 0.00 0.00 0.00 99 1009.4
20260904093902 42 150 0.0 0.0 0.00 0.00 0.00 99 1009.3
20260904093402 42 148 0.0 0.0 0.00 0.00 0.00 99 1009.3
20260904092857 42 147 0.0 0.0 0.00 0.00 0.00 99 1009.3
20260904092353 42 140 0.0 0.0 0.00 0.00 0.00 99 1009.6
20260904091849 43 134 0.0 0.0 0.00 0.00 0.00 99 1009.3
20260904091344 43 163 1.7 1.7 0.00 0.00 0.00 99 1009.3
20260904090839 43 103 0.0 0.0 0.00 0.00 0.00 99 1009.3
20260904090336 43 103 0.0 0.0 0.00 0.00 0.00 99 1009.3
20260904085830 44 103 0.0 0.0 0.00 0.00 0.00 99 1009.0
20260904085325 44 101 0.0 0.0 0.00 0.00 0.00 99 1008.8
20260904084820 44 116 0.0 0.0 0.00 0.00 0.00 99 1009.2
20260904084316 44 116 0.0 0.0 0.00 0.00 0.00 99 1009.0
20260904083812 44 115 0.0 0.0 0.00 0.00 0.00 99 1008.7
20260904083308 44 115 0.0 0.0 0.00 0.00 0.00 99 1009.0
20260904082803 45 106 0.0 0.0 0.00 0.00 0.00 99 1008.7
20260904082258 45 113 0.0 0.0 0.00 0.00 0.00 99 1008.7
20260904081753 45 123 0.0 0.0 0.00 0.00 0.00 99 1008.7
20260904081249 45 126 0.0 0.0 0.00 0.00 0.00 99 1008.7
20260904080744 45 126 0.0 0.0 0.00 0.00 0.00 99 1008.6
20260904080239 45 126 0.0 0.0 0.00 0.00 0.00 99 1008.7
20260904075736 45 125 0.0 0.0 0.00 0.00 0.00 99 1008.7
20260904075231 45 114 0.0 0.0 0.00 0.00 0.00 99 1008.6
20260904074730 46 152 0.0 0.0 0.00 0.00 0.00 99 1009.2
20260904074224 46 139 0.0 0.0 0.00 0.00 0.00 99 1008.8
20260904073720 46 146 0.0 0.0 0.00 0.00 0.00 99 1009.1
20260904073216 46 147 0.0 0.0 0.00 0.00 0.00 99 1008.8
20260904072711 46 174 0.9 1.7 0.00 0.00 0.00 99 1009.1
20260904072206 46 150 0.0 0.0 0.00 0.00 0.00 99 1009.1
20260904071702 46 148 0.0 0.9 0.00 0.00 0.00 99 1009.0
20260904071157 46 155 1.7 2.6 0.00 0.00 0.00 99 1009.1
20260904070656 46 153 1.7 1.7 0.00 0.00 0.00 99 1008.8
20260904070155 46 154 0.9 0.9 0.00 0.00 0.00 99 1009.1
20260904065650 46 170 1.7 1.7 0.00 0.47 0.47 99 1009.0